Location: A�t �Alizem
(31.2076°N, 8.7872°W)
Time: 21:18:01
(UTC+00:00)

N. Korean satellite - Visible Passes

Search period start: 19 September 2021 00:00
Search period end: 29 September 2021 00:00
Orbit: 448 x 499 km, 97.3° (Epoch: 19 September)

Date Brightness Start Highest point End Pass type
(mag) Time Alt. Az. Time Alt. Az. Time Alt. Az.
19 Sep 9.8 04:52:05 10° ENE 04:53:42 13° E 04:55:21 10° ESE visible
20 Sep 6.5 05:55:46 10° N 05:59:16 66° WNW 06:02:48 10° SSW visible
21 Sep 7.8 05:28:09 10° NNE 05:31:33 44° E 05:34:59 10° S visible
22 Sep 9.6 05:01:16 10° NE 05:03:45 18° E 05:06:14 10° SE visible
24 Sep 7.0 05:37:59 10° NNE 05:41:31 64° E 05:45:05 10° S visible
25 Sep 9.1 05:10:45 10° NE 05:13:44 24° E 05:16:43 10° SSE visible
26 Sep 10.3 04:45:32 10° E 04:45:51 10° E 04:46:09 10° E visible
27 Sep 6.5 05:47:50 10° N 05:51:26 87° W 05:55:03 10° SSW visible
28 Sep 8.4 05:20:21 10° NNE 05:23:39 34° E 05:26:58 10° SSE visible
